Regional Weather Roundup
Issued by NWS Midland/Odessa, TX

Home | Current Version | Previous Version | Text Only | Print | Product List | Glossary On
Versions: 1 2 3 4 5 6 7 8 9 10 11 12 13 14 15 16 17 18 19 20 21 22 23 24 25 26 27 28 29 30 31 32 33 34 35 36 37 38 39 40 41 42 43 44 45 46 47 48 49 50
000
ASUS44 KMAF 031110
RWRMAF
MIDLAND AREA WEATHER ROUNDUP
NATIONAL WEATHER SERVICE MIDLAND TX
600 AM CDT WED JUN 03 2015

...IN SOUTHWEST TEXAS AND SOUTHEAST NEW MEXICO...

CITY           SKY/WX    TMP DP  RH WIND       PRES   REMARKS
ALPINE         CLEAR     65  49  56 CALM      30.05F
ANDREWS        FAIR      64  62  93 S8        29.90F
ARTESIA        CLEAR     59  55  88 S10       29.90F
BIG SPRING     CLEAR     68  61  78 SE14      29.91F
CARLSBAD       CLEAR     58  51  78 CALM      29.88R
DRYDEN           N/A     68  63  84 N5        29.89S
FORT STOCKTON  CLEAR     66  60  81 S10       29.89F
GUAD PASS      CLEAR     70  42  36 W6        30.06S
HOBBS          CLEAR     61  61 100 S8        29.92F
MARFA          CLEAR     52  43  71 N7        30.06S
MIDLAND AIRPK  CLEAR     67  61  80 S7        29.90F
MIDLAND INTL   CLEAR     69  61  75 S12       29.90S
ODESSA         CLEAR     68  60  75 S8        29.91S
PECOS          CLEAR     62  58  88 NE5       29.85F
PRESIDIO       FAIR      74  48  39 N7        29.90S
SEMINOLE       CLEAR     62  59  91 S3        29.92S
SNYDER         CLEAR     64  61  89 S8        29.91S
WINK           CLEAR     66  61  84 SE9       29.86S
$$
...OTHER STATIONS IN TEXAS...

CITY           SKY/WX    TMP DP  RH WIND       PRES   REMARKS
ABILENE        CLEAR     70  61  73 S10       29.90F
AMARILLO       CLEAR     64  59  83 S14       29.89F
AUSTIN         CLEAR     63  63 100 CALM      29.92R
BROWNSVILLE    CLEAR     75  72  90 E5        29.90R
CORPUS CHRISTI PTCLDY    73  70  90 SE6       29.91R
DALLAS FTW     PTCLDY    68  63  84 SE5       29.91R
DEL RIO        CLEAR     71  68  90 SE9       29.88S
EL PASO        PTCLDY    79  22  12 SE6       29.94R
HOUSTON INT    PTCLDY    69  68  96 CALM      29.93R
LUBBOCK        PTCLDY    65  62  90 S8        29.90F
SAN ANGELO     CLEAR     67  62  84 S7        29.91S
SAN ANTONIO    MOCLDY    73  69  87 S3        29.93R
WACO           CLEAR     69  64  84 SE7       29.92R
WICHITA FALLS  NOT AVBL
$$
...OTHER LOCATIONS IN NEW MEXICO...

CITY           SKY/WX    TMP DP  RH WIND       PRES   REMARKS
ALAMAGORDO     CLEAR     63  23  22 NE7       29.95S
ALBUQUERQUE    CLEAR     64  23  21 E5        30.06R
CANNON AFB     CLEAR     60  57  91 S6        29.93S
CLOVIS         CLEAR     59  55  88 S8          N/A
HOLLOMAN AFB   CLEAR     62  21  21 E8        29.92F
ROSWELL        CLEAR     62  54  74 S9        29.89S
RUIDOSO        CLEAR     63  16  16 W8        30.16R
SANTA FE       CLEAR     57  21  24 CALM      30.09R
TRUTH OR CONSE CLEAR     64  21  19 NW8       30.00S
TUCUMCARI      CLEAR     66  53  63 SW13      29.89R
$$



USA.gov is the U.S. government's official web portal to all federal, state and local government web resources and services.